ASL792 EETN-LYBE

Flight info

Callsign ASL792
Flight time 2h 12m
Altitude 34000
Route ORTAX DCT LUTAL P870 BERIL/N0442F350 DCT BOKSU/N0445F360 M857 PODAN/N0366F240 M857 KSC/N0360F230 N133 KEKED/N0438F360 DCT PARAK/N0339F190 M173 TISAK
Aircraft B38M/M-SDE1FGHILORVWXY/HB1

Departure

Time 2026-04-27 17:11
Airport Lennart Meri Tallinn Airport (EETN)

Arrival

Time 2026-04-27 19:24
Airport Belgrade Nikola Tesla Airport (LYBE)
Time Latitude Longitude Altitude Speed Heading
2026-04-27 16:45 59.41691 24.80127 159 ft 0 kts 180°
2026-04-27 16:58 59.41705 24.80127 159 ft 2 kts 180°
2026-04-27 16:58 59.41719 24.80127 159 ft 2 kts 180°
2026-04-27 16:59 59.41731 24.80127 160 ft 0 kts 180°
2026-04-27 16:59 59.41743 24.80122 160 ft 2 kts 139°
2026-04-27 16:59 59.41750 24.80100 160 ft 0 kts 96°
2026-04-27 16:59 59.41750 24.80089 159 ft 1 kts 88°
2026-04-27 17:00 59.41750 24.80084 159 ft 0 kts 90°
2026-04-27 17:01 59.41750 24.80085 159 ft 0 kts 90°
2026-04-27 17:01 59.41750 24.80126 160 ft 4 kts 90°
2026-04-27 17:01 59.41749 24.80215 161 ft 8 kts 92°
2026-04-27 17:02 59.41740 24.80367 161 ft 13 kts 101°
2026-04-27 17:02 59.41682 24.80512 160 ft 14 kts 163°
2026-04-27 17:02 59.41579 24.80518 157 ft 15 kts 179°
2026-04-27 17:02 59.41508 24.80667 156 ft 17 kts 92°
2026-04-27 17:03 59.41508 24.80896 156 ft 16 kts 90°
2026-04-27 17:03 59.41505 24.81110 154 ft 16 kts 90°
2026-04-27 17:03 59.41505 24.81329 152 ft 15 kts 90°
2026-04-27 17:03 59.41505 24.81549 149 ft 16 kts 90°
2026-04-27 17:04 59.41505 24.81764 149 ft 15 kts 90°
2026-04-27 17:04 59.41505 24.81960 149 ft 13 kts 90°
2026-04-27 17:04 59.41504 24.82146 149 ft 14 kts 91°
2026-04-27 17:04 59.41503 24.82375 149 ft 17 kts 90°
2026-04-27 17:05 59.41502 24.82633 149 ft 19 kts 90°
2026-04-27 17:05 59.41502 24.82892 149 ft 18 kts 90°
2026-04-27 17:05 59.41501 24.83131 149 ft 16 kts 90°
2026-04-27 17:05 59.41500 24.83349 149 ft 15 kts 90°
2026-04-27 17:06 59.41500 24.83530 152 ft 11 kts 90°
2026-04-27 17:06 59.41499 24.83697 152 ft 15 kts 90°
2026-04-27 17:06 59.41498 24.83933 152 ft 17 kts 90°
2026-04-27 17:06 59.41498 24.84176 152 ft 19 kts 90°
2026-04-27 17:07 59.41497 24.84437 152 ft 18 kts 90°
2026-04-27 17:07 59.41497 24.84681 152 ft 17 kts 90°
2026-04-27 17:07 59.41496 24.84906 152 ft 16 kts 90°
2026-04-27 17:07 59.41495 24.85137 150 ft 18 kts 90°
2026-04-27 17:08 59.41494 24.85398 149 ft 18 kts 91°
2026-04-27 17:08 59.41494 24.85646 149 ft 17 kts 90°
2026-04-27 17:08 59.41493 24.85874 149 ft 16 kts 91°
2026-04-27 17:08 59.41493 24.86079 150 ft 13 kts 90°
2026-04-27 17:09 59.41492 24.86237 152 ft 10 kts 90°
2026-04-27 17:09 59.41492 24.86374 152 ft 10 kts 90°
2026-04-27 17:09 59.41491 24.86545 152 ft 14 kts 90°
2026-04-27 17:09 59.41481 24.86653 152 ft 5 kts 124°
2026-04-27 17:10 59.41426 24.86701 152 ft 11 kts 176°
2026-04-27 17:10 59.41407 24.86703 152 ft 0 kts 179°
2026-04-27 17:10 59.41383 24.86704 152 ft 12 kts 179°
2026-04-27 17:10 59.41324 24.86637 152 ft 11 kts 249°
2026-04-27 17:11 59.41319 24.86074 152 ft 77 kts 270°
2026-04-27 17:11 59.41332 24.82330 245 ft 180 kts 272°
2026-04-27 17:11 59.41347 24.79971 1180 ft 173 kts 277°
2026-04-27 17:12 59.40512 24.75573 2429 ft 207 kts 218°
2026-04-27 17:12 59.39154 24.74402 2955 ft 216 kts 202°
2026-04-27 17:12 59.37733 24.73445 3440 ft 221 kts 204°
2026-04-27 17:13 59.36268 24.72343 3788 ft 233 kts 206°
2026-04-27 17:13 59.34699 24.71091 4114 ft 250 kts 206°
2026-04-27 17:13 59.33071 24.69784 4493 ft 265 kts 206°
2026-04-27 17:13 59.31310 24.68381 5000 ft 277 kts 205°
2026-04-27 17:14 59.29499 24.66946 5424 ft 290 kts 205°
2026-04-27 17:14 59.27616 24.65459 6098 ft 293 kts 205°
2026-04-27 17:14 59.25740 24.63981 6813 ft 295 kts 205°
2026-04-27 17:14 59.23856 24.62497 7507 ft 296 kts 205°
2026-04-27 17:15 59.21943 24.60991 8201 ft 298 kts 205°
2026-04-27 17:15 59.20035 24.59491 8922 ft 298 kts 205°
2026-04-27 17:15 59.18126 24.57991 9570 ft 301 kts 205°
2026-04-27 17:15 59.16171 24.56455 10235 ft 303 kts 205°
2026-04-27 17:16 59.14210 24.54912 10587 ft 316 kts 205°
2026-04-27 17:16 59.12137 24.53278 10901 ft 329 kts 205°
2026-04-27 17:16 59.09949 24.51557 11153 ft 344 kts 204°
2026-04-27 17:16 59.07708 24.49801 11372 ft 358 kts 204°
2026-04-27 17:17 59.05388 24.47993 11824 ft 364 kts 204°
2026-04-27 17:17 59.03039 24.46162 12372 ft 367 kts 204°
2026-04-27 17:17 59.00663 24.44311 12905 ft 370 kts 204°
2026-04-27 17:18 58.95892 24.40601 14012 ft 374 kts 204°
2026-04-27 17:18 58.93474 24.38728 14506 ft 378 kts 204°
2026-04-27 17:18 58.91056 24.36856 15043 ft 380 kts 204°
2026-04-27 17:18 58.88582 24.34945 15519 ft 383 kts 202°
2026-04-27 17:19 58.86105 24.33055 16016 ft 385 kts 201°
2026-04-27 17:19 58.83550 24.31426 16494 ft 388 kts 197°
2026-04-27 17:19 58.80958 24.30156 16969 ft 391 kts 193°
2026-04-27 17:19 58.78299 24.29035 17376 ft 395 kts 192°
2026-04-27 17:20 58.75588 24.27945 17852 ft 397 kts 192°
2026-04-27 17:20 58.72911 24.26861 18263 ft 400 kts 193°
2026-04-27 17:20 58.70179 24.25727 18685 ft 402 kts 193°
2026-04-27 17:20 58.67469 24.24576 19065 ft 406 kts 193°
2026-04-27 17:21 58.64693 24.23379 19475 ft 409 kts 194°
2026-04-27 17:21 58.61924 24.22177 19830 ft 412 kts 194°
2026-04-27 17:21 58.59149 24.20969 20196 ft 415 kts 194°
2026-04-27 17:21 58.56307 24.19732 20533 ft 419 kts 194°
2026-04-27 17:22 58.53489 24.18508 20861 ft 422 kts 194°
2026-04-27 17:22 58.50597 24.17255 21193 ft 426 kts 194°
2026-04-27 17:22 58.47745 24.16022 21555 ft 428 kts 194°
2026-04-27 17:22 58.44841 24.14769 21854 ft 431 kts 195°
2026-04-27 17:23 58.41918 24.13509 22153 ft 435 kts 195°
2026-04-27 17:23 58.38943 24.12229 22486 ft 437 kts 195°
2026-04-27 17:23 58.35979 24.10955 22755 ft 441 kts 195°
2026-04-27 17:23 58.33019 24.09685 23042 ft 444 kts 196°
2026-04-27 17:24 58.29984 24.08386 23329 ft 447 kts 196°
2026-04-27 17:24 58.26962 24.07095 23620 ft 450 kts 196°
2026-04-27 17:24 58.23896 24.05786 23927 ft 453 kts 196°
2026-04-27 17:24 58.20848 24.04487 24253 ft 455 kts 197°
2026-04-27 17:25 58.17707 24.03149 24481 ft 461 kts 197°
2026-04-27 17:25 58.14580 24.01823 24867 ft 462 kts 197°
2026-04-27 17:25 58.11433 24.00491 25104 ft 467 kts 197°
2026-04-27 17:25 58.08296 23.99166 25398 ft 469 kts 197°
2026-04-27 17:26 58.05111 23.97826 25745 ft 470 kts 197°
2026-04-27 17:26 58.01930 23.96490 25999 ft 473 kts 197°
2026-04-27 17:26 57.98718 23.95142 26251 ft 477 kts 197°
2026-04-27 17:26 57.95486 23.93785 26538 ft 480 kts 198°
2026-04-27 17:27 57.92261 23.92435 26819 ft 481 kts 197°
2026-04-27 17:27 57.88973 23.91070 27094 ft 485 kts 197°
2026-04-27 17:27 57.85665 23.89819 27326 ft 489 kts 196°
2026-04-27 17:27 57.82323 23.88685 27643 ft 490 kts 195°
2026-04-27 17:28 57.78948 23.87603 27807 ft 495 kts 194°
2026-04-27 17:28 57.75555 23.86538 28130 ft 495 kts 194°
2026-04-27 17:28 57.68788 23.84410 28613 ft 499 kts 195°
2026-04-27 17:29 57.65369 23.83324 28862 ft 501 kts 195°
2026-04-27 17:29 57.61899 23.82211 29034 ft 505 kts 195°
2026-04-27 17:29 57.58489 23.81113 29379 ft 502 kts 195°
2026-04-27 17:29 57.55101 23.80024 29770 ft 499 kts 195°
2026-04-27 17:30 57.51651 23.78910 29977 ft 501 kts 195°
2026-04-27 17:30 57.44819 23.76697 30433 ft 504 kts 196°
2026-04-27 17:30 57.41386 23.75591 30835 ft 500 kts 195°
2026-04-27 17:31 57.37949 23.74486 31123 ft 499 kts 196°
2026-04-27 17:31 57.34555 23.73396 31429 ft 498 kts 196°
2026-04-27 17:31 57.31191 23.72316 31696 ft 498 kts 195°
2026-04-27 17:31 57.27777 23.71222 31970 ft 497 kts 196°
2026-04-27 17:32 57.24399 23.70141 32222 ft 498 kts 196°
2026-04-27 17:32 57.17597 23.67976 32803 ft 495 kts 196°
2026-04-27 17:32 57.14223 23.66906 33143 ft 492 kts 195°
2026-04-27 17:33 57.10897 23.65848 33315 ft 494 kts 196°
2026-04-27 17:33 57.07497 23.64765 33569 ft 493 kts 195°
2026-04-27 17:33 57.04155 23.63706 33888 ft 491 kts 195°
2026-04-27 17:33 57.00789 23.62642 34062 ft 493 kts 195°
2026-04-27 17:34 56.97417 23.61579 34385 ft 489 kts 195°
2026-04-27 17:34 56.94106 23.60541 34688 ft 487 kts 195°
2026-04-27 17:34 56.90808 23.59507 34906 ft 487 kts 195°
2026-04-27 17:34 56.87453 23.58451 35108 ft 487 kts 195°
2026-04-27 17:35 56.84116 23.57402 35297 ft 488 kts 195°
2026-04-27 17:35 56.80778 23.56357 35567 ft 485 kts 195°
2026-04-27 17:35 56.77479 23.55332 35814 ft 482 kts 194°
2026-04-27 17:35 56.74192 23.54311 36040 ft 481 kts 195°
2026-04-27 17:36 56.70866 23.53279 36101 ft 483 kts 195°
2026-04-27 17:36 56.64266 23.51234 36090 ft 484 kts 194°
2026-04-27 17:37 56.57651 23.49201 36095 ft 482 kts 195°
2026-04-27 17:37 56.51061 23.47167 36108 ft 484 kts 195°
2026-04-27 17:38 56.44415 23.45120 36113 ft 483 kts 195°
2026-04-27 17:38 56.37774 23.43086 36110 ft 484 kts 195°
2026-04-27 17:39 56.31130 23.41331 36091 ft 485 kts 192°
2026-04-27 17:39 56.24404 23.40132 36116 ft 486 kts 191°
2026-04-27 17:40 56.17654 23.39010 36104 ft 487 kts 191°
2026-04-27 17:40 56.10925 23.37851 36125 ft 489 kts 191°
2026-04-27 17:41 56.04225 23.36672 36123 ft 486 kts 191°
2026-04-27 17:41 55.97491 23.35442 36118 ft 487 kts 192°
2026-04-27 17:42 55.90730 23.34182 36128 ft 488 kts 191°
2026-04-27 17:42 55.84025 23.32942 36104 ft 483 kts 191°
2026-04-27 17:43 55.77312 23.31711 36127 ft 486 kts 191°
2026-04-27 17:43 55.70640 23.30489 36106 ft 485 kts 191°
2026-04-27 17:44 55.63904 23.29264 36123 ft 486 kts 191°
2026-04-27 17:44 55.57233 23.28055 36111 ft 486 kts 192°
2026-04-27 17:45 55.50522 23.26851 36080 ft 486 kts 191°
2026-04-27 17:45 55.43812 23.25642 36118 ft 483 kts 191°
2026-04-27 17:46 55.37152 23.24448 36120 ft 484 kts 192°
2026-04-27 17:46 55.30432 23.23251 36123 ft 485 kts 192°
2026-04-27 17:47 55.23774 23.22066 36124 ft 483 kts 192°
2026-04-27 17:47 55.17080 23.20880 36113 ft 482 kts 192°
2026-04-27 17:48 55.10418 23.19703 36111 ft 484 kts 192°
2026-04-27 17:48 55.03775 23.18533 36142 ft 481 kts 192°
2026-04-27 17:49 54.97133 23.17366 36118 ft 480 kts 192°
2026-04-27 17:49 54.90492 23.16207 36125 ft 483 kts 192°
2026-04-27 17:50 54.83823 23.15039 36134 ft 480 kts 192°
2026-04-27 17:50 54.73839 23.13301 36130 ft 481 kts 192°
2026-04-27 17:51 54.67247 23.12168 36137 ft 479 kts 192°
2026-04-27 17:51 54.60653 23.11044 36131 ft 477 kts 192°
2026-04-27 17:52 54.53994 23.09900 36116 ft 477 kts 192°
2026-04-27 17:52 54.47441 23.08784 36136 ft 476 kts 192°
2026-04-27 17:53 54.40870 23.07663 36127 ft 476 kts 192°
2026-04-27 17:53 54.34316 23.06487 36122 ft 473 kts 194°
2026-04-27 17:54 54.31196 23.05096 36134 ft 457 kts 212°
2026-04-27 17:54 54.28460 23.02431 36141 ft 449 kts 219°
2026-04-27 17:54 54.25632 23.00064 36135 ft 460 kts 206°
2026-04-27 17:54 54.22538 22.98535 36134 ft 468 kts 199°
2026-04-27 17:55 54.16163 22.96584 36132 ft 470 kts 195°
2026-04-27 17:55 54.09669 22.94827 36148 ft 471 kts 196°
2026-04-27 17:56 54.03228 22.92850 36145 ft 468 kts 197°
2026-04-27 17:56 53.96872 22.90680 36130 ft 467 kts 198°
2026-04-27 17:57 53.90529 22.88440 36136 ft 465 kts 198°
2026-04-27 17:57 53.84211 22.86201 36151 ft 466 kts 198°
2026-04-27 17:58 53.77886 22.83957 36151 ft 466 kts 198°
2026-04-27 17:58 53.71563 22.81725 36148 ft 464 kts 198°
2026-04-27 17:59 53.65269 22.79501 36149 ft 465 kts 198°
2026-04-27 17:59 53.58925 22.77271 36146 ft 464 kts 198°
2026-04-27 18:00 53.52627 22.75064 36153 ft 465 kts 198°
2026-04-27 18:00 53.46310 22.72857 36148 ft 463 kts 198°
2026-04-27 18:01 53.40012 22.70665 36153 ft 464 kts 198°
2026-04-27 18:01 53.33725 22.68480 36144 ft 464 kts 198°
2026-04-27 18:02 53.27422 22.66299 36149 ft 462 kts 198°
2026-04-27 18:02 53.21162 22.64139 36161 ft 462 kts 198°
2026-04-27 18:03 53.14866 22.61974 36165 ft 460 kts 198°
2026-04-27 18:03 53.08614 22.59827 36171 ft 462 kts 198°
2026-04-27 18:04 53.02364 22.57688 36173 ft 460 kts 198°
2026-04-27 18:04 52.96104 22.55550 36168 ft 460 kts 198°
2026-04-27 18:05 52.89824 22.53417 36166 ft 460 kts 198°
2026-04-27 18:05 52.83575 22.51300 36167 ft 460 kts 198°
2026-04-27 18:06 52.77345 22.49191 36165 ft 460 kts 198°
2026-04-27 18:06 52.71084 22.47079 36161 ft 460 kts 198°
2026-04-27 18:07 52.64827 22.44977 36153 ft 461 kts 198°
2026-04-27 18:07 52.58546 22.42871 36150 ft 461 kts 198°
2026-04-27 18:08 52.52285 22.40777 36150 ft 461 kts 198°
2026-04-27 18:08 52.46008 22.38686 36150 ft 461 kts 198°
2026-04-27 18:09 52.39737 22.36602 36150 ft 460 kts 197°
2026-04-27 18:09 52.33484 22.34532 36149 ft 460 kts 197°
2026-04-27 18:10 52.27201 22.32455 36149 ft 462 kts 197°
2026-04-27 18:10 52.20945 22.30396 36150 ft 461 kts 197°
2026-04-27 18:11 52.14655 22.28333 36150 ft 460 kts 197°
2026-04-27 18:11 52.08406 22.26286 36150 ft 460 kts 197°
2026-04-27 18:12 52.02144 22.24239 36151 ft 461 kts 197°
2026-04-27 18:12 51.95855 22.22190 36148 ft 461 kts 197°
2026-04-27 18:13 51.89588 22.20156 36149 ft 460 kts 197°
2026-04-27 18:13 51.83347 22.18135 36152 ft 460 kts 197°
2026-04-27 18:14 51.77074 22.16110 36151 ft 460 kts 197°
2026-04-27 18:14 51.70813 22.14095 36156 ft 461 kts 197°
2026-04-27 18:15 51.67662 22.13085 35959 ft 458 kts 197°
2026-04-27 18:15 51.64579 22.12099 36084 ft 457 kts 197°
2026-04-27 18:15 51.58287 22.10081 36147 ft 463 kts 197°
2026-04-27 18:16 51.51977 22.08065 36156 ft 462 kts 197°
2026-04-27 18:16 51.45712 22.06074 36158 ft 461 kts 197°
2026-04-27 18:17 51.39452 22.04086 36158 ft 462 kts 197°
2026-04-27 18:17 51.33149 22.02091 36157 ft 462 kts 197°
2026-04-27 18:18 51.26881 22.00114 36160 ft 462 kts 197°
2026-04-27 18:18 51.20578 21.98133 36157 ft 462 kts 197°
2026-04-27 18:19 51.14280 21.96157 36162 ft 463 kts 197°
2026-04-27 18:19 51.07955 21.94176 36171 ft 463 kts 197°
2026-04-27 18:20 51.01665 21.92211 36165 ft 461 kts 197°
2026-04-27 18:20 50.95375 21.90253 36170 ft 462 kts 197°
2026-04-27 18:21 50.89080 21.88302 36174 ft 461 kts 197°
2026-04-27 18:21 50.82809 21.86363 36184 ft 461 kts 197°
2026-04-27 18:22 50.76484 21.84406 36186 ft 463 kts 197°
2026-04-27 18:22 50.70195 21.82471 36184 ft 461 kts 197°
2026-04-27 18:23 50.63883 21.80535 36192 ft 462 kts 197°
2026-04-27 18:23 50.57582 21.78606 36183 ft 463 kts 197°
2026-04-27 18:24 50.51287 21.76685 36188 ft 463 kts 197°
2026-04-27 18:24 50.44967 21.74760 36185 ft 463 kts 197°
2026-04-27 18:25 50.38665 21.72849 36189 ft 463 kts 197°
2026-04-27 18:25 50.32373 21.70946 36191 ft 461 kts 197°
2026-04-27 18:26 50.26039 21.69033 36186 ft 464 kts 197°
2026-04-27 18:26 50.19732 21.67136 36189 ft 464 kts 197°
2026-04-27 18:27 50.13410 21.65241 36188 ft 465 kts 197°
2026-04-27 18:27 50.07023 21.63325 36173 ft 465 kts 197°
2026-04-27 18:28 50.00745 21.61445 36173 ft 463 kts 197°
2026-04-27 18:28 49.94402 21.59555 36181 ft 464 kts 197°
2026-04-27 18:29 49.88083 21.57676 36186 ft 464 kts 197°
2026-04-27 18:29 49.81715 21.55789 36177 ft 464 kts 197°
2026-04-27 18:30 49.75407 21.53927 36181 ft 464 kts 197°
2026-04-27 18:30 49.69094 21.52060 36182 ft 464 kts 197°
2026-04-27 18:31 49.62738 21.50188 36179 ft 463 kts 197°
2026-04-27 18:31 49.56425 21.48344 36175 ft 463 kts 197°
2026-04-27 18:32 49.50101 21.46498 36182 ft 466 kts 197°
2026-04-27 18:32 49.43724 21.44640 36173 ft 465 kts 197°
2026-04-27 18:33 49.37393 21.42831 36179 ft 464 kts 196°
2026-04-27 18:33 49.31044 21.41140 36185 ft 464 kts 196°
2026-04-27 18:34 49.24712 21.39490 36179 ft 465 kts 196°
2026-04-27 18:34 49.18317 21.37826 36186 ft 464 kts 196°
2026-04-27 18:35 49.12000 21.36170 36183 ft 464 kts 196°
2026-04-27 18:35 49.05611 21.34503 36188 ft 467 kts 195°
2026-04-27 18:36 48.99209 21.32829 36184 ft 464 kts 195°
2026-04-27 18:36 48.92857 21.31172 36185 ft 466 kts 195°
2026-04-27 18:37 48.86481 21.29515 36188 ft 466 kts 195°
2026-04-27 18:37 48.80107 21.27864 36183 ft 467 kts 195°
2026-04-27 18:38 48.73709 21.26219 36182 ft 466 kts 194°
2026-04-27 18:38 48.67246 21.25327 36177 ft 475 kts 182°
2026-04-27 18:39 48.60630 21.26431 36181 ft 478 kts 175°
2026-04-27 18:39 48.57379 21.26701 36164 ft 470 kts 191°
2026-04-27 18:39 48.54180 21.25774 36184 ft 461 kts 202°
2026-04-27 18:40 48.48230 21.22509 36180 ft 455 kts 208°
2026-04-27 18:40 48.42343 21.18939 36179 ft 457 kts 208°
2026-04-27 18:41 48.36388 21.15553 36171 ft 459 kts 206°
2026-04-27 18:41 48.30378 21.12354 36177 ft 459 kts 205°
2026-04-27 18:42 48.25346 21.09770 36164 ft 461 kts 205°
2026-04-27 18:42 48.18292 21.06214 36161 ft 461 kts 205°
2026-04-27 18:43 48.12220 21.03178 36166 ft 460 kts 205°
2026-04-27 18:43 48.06190 21.00178 36150 ft 461 kts 205°
2026-04-27 18:44 48.00073 20.97145 36153 ft 462 kts 205°
2026-04-27 18:44 47.94007 20.94147 36149 ft 461 kts 205°
2026-04-27 18:45 47.87929 20.91146 36148 ft 461 kts 205°
2026-04-27 18:45 47.81885 20.88175 36149 ft 461 kts 204°
2026-04-27 18:46 47.75790 20.85173 36154 ft 463 kts 205°
2026-04-27 18:46 47.69678 20.82182 36152 ft 461 kts 204°
2026-04-27 18:47 47.63621 20.79225 36156 ft 461 kts 204°
2026-04-27 18:47 47.57516 20.76248 36157 ft 461 kts 204°
2026-04-27 18:48 47.51432 20.73289 36160 ft 462 kts 204°
2026-04-27 18:48 47.45350 20.70342 36158 ft 461 kts 204°
2026-04-27 18:49 47.39290 20.67413 36155 ft 461 kts 204°
2026-04-27 18:49 47.33213 20.64475 36159 ft 461 kts 204°
2026-04-27 18:50 47.27138 20.61546 36157 ft 458 kts 204°
2026-04-27 18:50 47.21064 20.58629 36160 ft 460 kts 204°
2026-04-27 18:51 47.14998 20.55723 36158 ft 461 kts 204°
2026-04-27 18:51 47.08896 20.52807 36158 ft 461 kts 204°
2026-04-27 18:52 47.02812 20.49909 36159 ft 459 kts 204°
2026-04-27 18:53 46.93718 20.45589 36152 ft 459 kts 203°
2026-04-27 18:53 46.87661 20.42715 36154 ft 460 kts 204°
2026-04-27 18:54 46.81606 20.39848 36160 ft 459 kts 204°
2026-04-27 18:54 46.75525 20.36977 36150 ft 460 kts 203°
2026-04-27 18:55 46.69423 20.34104 36152 ft 460 kts 202°
2026-04-27 18:55 46.63368 20.31263 36143 ft 461 kts 202°
2026-04-27 18:56 46.57339 20.28447 35988 ft 448 kts 202°
2026-04-27 18:56 46.54397 20.27078 35632 ft 444 kts 202°
2026-04-27 18:56 46.51451 20.25705 35162 ft 443 kts 202°
2026-04-27 18:56 46.48533 20.24343 34639 ft 442 kts 202°
2026-04-27 18:57 46.45615 20.22980 34109 ft 441 kts 202°
2026-04-27 18:57 46.42700 20.21621 33612 ft 438 kts 202°
2026-04-27 18:57 46.39845 20.20295 33120 ft 436 kts 202°
2026-04-27 18:57 46.36965 20.18959 32623 ft 433 kts 202°
2026-04-27 18:58 46.34094 20.17630 32134 ft 430 kts 202°
2026-04-27 18:58 46.32202 20.16754 31810 ft 428 kts 202°
2026-04-27 18:58 46.28465 20.15023 31164 ft 425 kts 202°
2026-04-27 18:58 46.25644 20.13716 30682 ft 422 kts 202°
2026-04-27 18:59 46.22886 20.12439 30196 ft 419 kts 202°
2026-04-27 18:59 46.20132 20.11182 29716 ft 416 kts 201°
2026-04-27 18:59 46.17334 20.10140 29245 ft 416 kts 194°
2026-04-27 18:59 46.14458 20.09764 29148 ft 409 kts 182°
2026-04-27 19:00 46.11664 20.09998 29147 ft 408 kts 176°
2026-04-27 19:00 46.05956 20.11044 29135 ft 415 kts 173°
2026-04-27 19:00 46.03128 20.11636 28920 ft 410 kts 173°
2026-04-27 19:01 46.00331 20.12212 28538 ft 410 kts 174°
2026-04-27 19:01 45.97469 20.12776 27888 ft 411 kts 174°
2026-04-27 19:01 45.94722 20.13302 27463 ft 401 kts 174°
2026-04-27 19:01 45.91964 20.13819 26803 ft 397 kts 174°
2026-04-27 19:02 45.89236 20.14322 26181 ft 392 kts 174°
2026-04-27 19:02 45.86558 20.14810 25543 ft 388 kts 175°
2026-04-27 19:02 45.83919 20.15287 24924 ft 383 kts 174°
2026-04-27 19:02 45.81276 20.15764 24306 ft 378 kts 174°
2026-04-27 19:03 45.78693 20.16228 23691 ft 374 kts 174°
2026-04-27 19:03 45.76154 20.16684 23091 ft 369 kts 175°
2026-04-27 19:03 45.73599 20.17142 22484 ft 365 kts 174°
2026-04-27 19:03 45.71952 20.17437 22050 ft 364 kts 175°
2026-04-27 19:04 45.68629 20.18031 21240 ft 358 kts 175°
2026-04-27 19:04 45.66197 20.18465 20648 ft 354 kts 175°
2026-04-27 19:04 45.63763 20.18899 20059 ft 350 kts 175°
2026-04-27 19:04 45.61369 20.19327 19444 ft 347 kts 175°
2026-04-27 19:05 45.58967 20.19755 18876 ft 343 kts 175°
2026-04-27 19:05 45.56614 20.20173 18261 ft 340 kts 175°
2026-04-27 19:05 45.54283 20.20588 17700 ft 336 kts 175°
2026-04-27 19:05 45.51985 20.20997 17112 ft 334 kts 175°
2026-04-27 19:06 45.49705 20.21402 16496 ft 332 kts 175°
2026-04-27 19:06 45.47439 20.21803 15960 ft 328 kts 175°
2026-04-27 19:06 45.45184 20.22202 15358 ft 326 kts 176°
2026-04-27 19:06 45.42950 20.22481 14786 ft 322 kts 181°
2026-04-27 19:07 45.40721 20.22374 14205 ft 316 kts 190°
2026-04-27 19:07 45.38563 20.21907 13639 ft 312 kts 195°
2026-04-27 19:07 45.36466 20.21299 13082 ft 308 kts 196°
2026-04-27 19:07 45.34384 20.20670 12548 ft 305 kts 195°
2026-04-27 19:08 45.32314 20.20061 11989 ft 302 kts 195°
2026-04-27 19:08 45.30270 20.19483 11545 ft 301 kts 194°
2026-04-27 19:08 45.28232 20.18922 11161 ft 299 kts 194°
2026-04-27 19:08 45.26205 20.18370 10794 ft 297 kts 194°
2026-04-27 19:09 45.24181 20.17823 10419 ft 295 kts 194°
2026-04-27 19:09 45.22156 20.17273 9944 ft 297 kts 194°
2026-04-27 19:09 45.20157 20.16731 9656 ft 291 kts 194°
2026-04-27 19:09 45.18181 20.16199 9311 ft 288 kts 194°
2026-04-27 19:10 45.16222 20.15671 8962 ft 286 kts 194°
2026-04-27 19:10 45.14284 20.15146 8616 ft 283 kts 194°
2026-04-27 19:10 45.12424 20.14405 8435 ft 270 kts 206°
2026-04-27 19:10 45.11304 20.13636 8278 ft 265 kts 213°
2026-04-27 19:11 45.09242 20.11784 7820 ft 263 kts 217°
2026-04-27 19:11 45.07760 20.10309 7507 ft 259 kts 223°
2026-04-27 19:11 45.06557 20.08497 7221 ft 253 kts 240°
2026-04-27 19:11 45.05972 20.06206 7000 ft 244 kts 268°
2026-04-27 19:12 45.06111 20.03823 7005 ft 244 kts 284°
2026-04-27 19:12 45.06701 20.01588 7004 ft 245 kts 299°
2026-04-27 19:12 45.07603 19.99537 7009 ft 245 kts 304°
2026-04-27 19:12 45.08544 19.97553 7006 ft 245 kts 303°
2026-04-27 19:13 45.09473 19.95527 7002 ft 244 kts 302°
2026-04-27 19:13 45.10380 19.93481 6997 ft 245 kts 302°
2026-04-27 19:13 45.11269 19.91444 6998 ft 245 kts 302°
2026-04-27 19:13 45.12161 19.89394 6999 ft 245 kts 302°
2026-04-27 19:14 45.12984 19.87282 6999 ft 245 kts 292°
2026-04-27 19:14 45.13310 19.84913 6996 ft 247 kts 266°
2026-04-27 19:14 45.12809 19.82595 7002 ft 251 kts 242°
2026-04-27 19:14 45.11758 19.80636 6999 ft 254 kts 226°
2026-04-27 19:15 45.10342 19.79144 7003 ft 256 kts 214°
2026-04-27 19:15 45.08708 19.78084 6991 ft 259 kts 195°
2026-04-27 19:15 45.06921 19.77968 6997 ft 263 kts 173°
2026-04-27 19:15 45.05169 19.78806 6904 ft 264 kts 149°
2026-04-27 19:16 45.03872 19.80562 6616 ft 261 kts 124°
2026-04-27 19:16 45.03222 19.81986 6426 ft 260 kts 121°
2026-04-27 19:16 45.01968 19.84876 6029 ft 257 kts 121°
2026-04-27 19:16 45.01033 19.87010 5741 ft 254 kts 121°
2026-04-27 19:17 45.00105 19.89116 5457 ft 252 kts 121°
2026-04-27 19:17 44.99217 19.91218 5172 ft 249 kts 118°
2026-04-27 19:17 44.98392 19.93355 4897 ft 246 kts 118°
2026-04-27 19:17 44.97551 19.95417 4644 ft 242 kts 120°
2026-04-27 19:18 44.96683 19.97404 4536 ft 237 kts 121°
2026-04-27 19:18 44.95805 19.99385 4459 ft 233 kts 121°
2026-04-27 19:18 44.94966 20.01290 4260 ft 230 kts 121°
2026-04-27 19:18 44.94120 20.03213 4010 ft 228 kts 120°
2026-04-27 19:19 44.93296 20.05082 3769 ft 226 kts 121°
2026-04-27 19:19 44.92469 20.06955 3540 ft 222 kts 121°
2026-04-27 19:19 44.91655 20.08798 3424 ft 220 kts 121°
2026-04-27 19:19 44.90853 20.10614 3239 ft 220 kts 120°
2026-04-27 19:20 44.90044 20.12444 3104 ft 213 kts 120°
2026-04-27 19:20 44.89277 20.14170 2862 ft 207 kts 120°
2026-04-27 19:20 44.88519 20.15869 2535 ft 204 kts 120°
2026-04-27 19:20 44.87773 20.17542 2258 ft 199 kts 120°
2026-04-27 19:21 44.87072 20.19166 1990 ft 184 kts 119°
2026-04-27 19:21 44.86425 20.20610 1769 ft 165 kts 119°
2026-04-27 19:21 44.85842 20.21909 1533 ft 154 kts 119°
2026-04-27 19:21 44.85276 20.23187 1336 ft 153 kts 119°
2026-04-27 19:22 44.84716 20.24451 1128 ft 153 kts 120°
2026-04-27 19:22 44.84146 20.25718 911 ft 154 kts 121°
2026-04-27 19:22 44.83585 20.27004 710 ft 153 kts 119°
2026-04-27 19:22 44.83026 20.28274 527 ft 152 kts 121°
2026-04-27 19:23 44.82468 20.29517 356 ft 148 kts 121°
2026-04-27 19:23 44.81951 20.30687 344 ft 124 kts 120°
2026-04-27 19:23 44.81617 20.31434 343 ft 61 kts 122°
2026-04-27 19:23 44.81416 20.31889 343 ft 50 kts 121°
2026-04-27 19:24 44.81285 20.32176 343 ft 25 kts 125°
2026-04-27 19:24 44.81143 20.32303 343 ft 23 kts 173°
2026-04-27 19:24 44.81078 20.32169 343 ft 22 kts 304°
2026-04-27 19:24 44.81189 20.31943 343 ft 35 kts 302°
2026-04-27 19:25 44.81342 20.31603 343 ft 44 kts 302°
2026-04-27 19:25 44.81502 20.31241 343 ft 42 kts 302°
2026-04-27 19:25 44.81652 20.30898 343 ft 40 kts 302°
2026-04-27 19:25 44.81798 20.30571 343 ft 38 kts 302°
2026-04-27 19:26 44.81935 20.30261 343 ft 36 kts 302°
2026-04-27 19:26 44.82065 20.29969 343 ft 34 kts 302°
2026-04-27 19:26 44.82175 20.29721 343 ft 22 kts 302°
2026-04-27 19:26 44.82169 20.29584 343 ft 14 kts 222°
2026-04-27 19:27 44.82087 20.29515 343 ft 13 kts 208°
2026-04-27 19:27 44.82014 20.29451 343 ft 11 kts 214°
2026-04-27 19:27 44.81999 20.29385 343 ft 7 kts 294°
2026-04-27 19:27 44.82014 20.29348 343 ft 0 kts 302°